OPS 4682 DEB, 18967

Orbit data source: Space-Track

OPS 4682 DEB, 18967 is space debris in LEO originally from a launch on Sat, 03 Apr 1965 UTC launched from the Air Force Western Test Range (AFWTR). Debris objects in space refer to the collection of defunct objects orbiting the Earth. Examples of debris include non-operational satellites, rocket bodies, and fragments generated from explosions, collisions, or faulty payload assembly.

Loading next visibility...
Identifier
18967, 1965-027AP
Orbit
LEO
Country
Flag of USUS
Related business
Manufacturer
Unknown
Mission
Spacecraft
Bus & Motor
Unknown
Mass
Unknown
Launch date (UTC)
1965-04-03 (61 years ago)
Launch vehicle
Unknown
Launch site
Air Force Western Test Range (AFWTR)
Object type
Payload
Rocket body
Debris
Shape & HBR
Unknown shape, 0.1 m
Radar Cross Section
Small (<0.1 m²)

Expand to show TLE details & history
Last TLE update: 6 hours ago

TLE from 6 hours ago
0 OPS 4682 DEB
1 18967U 65027AP  25347.02285044 -.00000035  00000-0 -14844-3 0  9991
2 18967  90.2415   6.2036 0026352 275.4280 112.0769 12.95966968794206
Epoch: 2025-12-13T00:32Z
TLE epoch observation values (Epoch: 2025-12-13T00:32:54.278Z)
Latitude
27.82135°
Longitude
-84.10545°
Altitude
1,288.972 km
Speed
7.21 km/s
True Right ascension
00h 24m 18s
True Declination
27° 41' 22"
Sunlit
Object was in daylight at epoch
Visualization orbit readout
Latitude
Unknown
Longitude
Unknown
Altitude
Unknown
Speed
Unknown
Apparent Right ascension
Unknown
Apparent Declination
Unknown
Sunlit
N/A
Visualization observer readout
Local Sidereal Time
05:23:40
Azimuth
Unknown
Elevation
Unknown
Doppler factor
Unknown
Orbital elements
Apogee altitude
1,295.23 km
Perigee altitude
1,254.895 km
Semi-major axis
7,653.199 km
Eccentricity
0.00264
Inclination
90.2415°
RAAN
6.2036°
Arg. of periapsis
275.428°
True anomaly
112.35638°
Mean anomaly
112.0769°
Eccentric anomaly
112.21668°
Mean motion
3.24174 °/min
Orbital period
111.05 mins
BSTAR
-0.00014844
Loading maneuver chart data...
Computing Atmospheric mass density...
Loading historical data...
Loading historical data...
Loading historical data...
Loading historical data...
Loading historical data...
Loading historical data...
Loading historical data...

Documentation

Showing up to 5 results
|